NOAA 16 DEB

Satellite information

Favourite Embed

Satellite Type and Status

DEBRISIN ORBIT

Key statistics

Satellite NOAA 16 DEB at a glance.

Uptime

8994

Days in orbit

Revolutions

≈ 14.4

Per day

Orbit

SSO

Sun Synchronous Orbit

Inclination

98.9

Latest

Satellite identification and parameters

Extended collection of information and parameters for NOAA 16 DEB.

Object identification

Identified? True

Debris? True

Object name: NOAA 16 DEB

International designator: 2000-055KG

Object number (NORAD): 41403

Object ID (CCSDS): 41403

Country: UNITED STATES OF AMERICA (US)

Current information (Y/N): Y

RCS size: SMALL

Orbital parameters

Period: 99.661 minutes

Inclination: 98.908 deg

SMA: 7120.51 km

Apoapsis: 756.801 km

Periapsis: 727.948 km

RAAN: 272.9042 deg

Eccentricy: 0.002026

Argument of periapsis: 263.6603 deg

Mean anomaly: 96.2279 deg

Mean motion: 14.44894552 rev/day

Mean motion (dot): 0.00010803 rev/day2

B* drag term: 0.0031041 1/REarth

Two-line elements (TLE)

Creation date: May 7, 2025, 3:14 a.m.

Reference frame: TEME

Reference center: EARTH

Epoch: May 6, 2025, 8:20 a.m. UTC

TLE line 0: 0 NOAA 16 DEB

TLE line 1: 1 41403U 00055KG 25126.34741076 .00010803 00000-0 31041-2 0 9993

TLE line 2: 2 41403 98.9080 272.9042 0020260 263.6603 96.2279 14.44894552480126

Live tracking on map

Real-time ground track for satellite NOAA 16 DEB.

In-orbit conjunctions

A list of the most updated potential collisions computed for object NOAA 16 DEB.

Target Orbit TCA Probability of collision Miss distance Type
COSMOS 2251 DEB LEO 2025-03-28 20:15:05 0.0001327492 56.0 (m) DEBRIS
COSMOS 468 LEO 2025-03-05 17:37:26 0.0001945337 294.0 (m) PAYLOAD
SEASAT 1 SSO 2025-02-02 06:28:49 0.0001271535 938.0 (m) PAYLOAD
CZ-6A DEB LEO 2025-01-02 23:42:31 0.0002707411 100.0 (m) DEBRIS
COSMOS 2298 DEB LEO 2024-11-11 11:48:34 0.0001839421 638.0 (m) DEBRIS

Associated space launch

The NOAA K, L and M POES satellites begin the fifth generation of improved environmental monitoring in support of NOAA missions. The instrument payload has significant improvements and additions/deletions. The instrument changes have effected the spacecraft subsystems and data formats.

NOAA 16 DEB was lifted into orbit during the mission ‘Titan II SLV | NOAA 16’, on board a Titan II SLV space rocket.

The launch took place on Sept. 21, 2000, 10:22 a.m. from Space Launch Complex 4W.

For more information about the launch, click the button.

Launch to space Titan II SLV | NOAA 16
Titan II SLV | NOAA 16

Agency: N/A

Status: Launch Successful

Launch date: Sept. 21, 2000, 10:22 a.m. UTC

Rocket: Titan II SLV

Launch pad: Space Launch Complex 4W

Location: Vandenberg SFB, CA, USA

...

Latest news about this satellite

There are no fresh news available about this satellite. Check back as we update our databases every day.


Newsletter sign-up

Weekly statistics, charts and insights to help you stay on top of the space industry.